Weather Roundup
Issued by NWS Chicago, IL

Home | Current Version | Previous Version | Text Only | Print | Product List | Glossary Off
Versions: 1 2 3 4 5 6 7 8 9 10 11 12 13 14 15 16 17 18 19 20 21 22 23 24 25 26 27 28 29 30 31 32 33 34 35 36 37 38 39 40 41 42 43 44 45 46 47 48 49 50

000
NZUS59 KLOT 182258
HRRLOT

CHICAGO AREA WEATHER ROUNDUP
NATIONAL WEATHER SERVICE CHICAGO/ROMEOVILLE IL
600 PM CDT THU SEP 18 2014

NOTE: "FAIR" INDICATES FEW OR NO CLOUDS BELOW 12,000 FEET WITH NO
SIGNIFICANT WEATHER AND/OR OBSTRUCTIONS TO VISIBILITY.

* THESE STATIONS ARE NOT UNDER NWS QUALITY CONTROL. THEY ALSO MAY NOT
  REPORT WEATHER SUCH AS PRECIPITATION OR FOG.

ILZ005-006-012>014-019>023-190000-
NORTHEAST ILLINOIS

CITY           SKY/WX    TMP DP  RH WIND       PRES   REMARKS
OHARE          PTCLDY    66  54  65 NE10      30.12S
MIDWAY         PTCLDY    66  55  67 NE9       30.11S
AURORA         CLEAR     68  53  58 E12       30.10S
WAUKEGAN       CLOUDY    58  52  80 N6        30.13S
DUPAGE AIRPORT CLEAR     66  54  65 NE10      30.11R
WHEELING       MOCLDY    61  54  77 NE8       30.14S
NORTHERLY IS     N/A     62  55  77 N8          N/A
$$

WIZ051-052-058>065-066-070>072-190000-
SOUTHEAST WISCONSIN

CITY           SKY/WX    TMP DP  RH WIND       PRES   REMARKS
MILWAUKEE      MOCLDY    57  51  80 NE7       30.15S
KENOSHA*       CLOUDY    58  53  84 NE6       30.15S
RACINE*        CLOUDY    58  51  78 E5        30.16S
WAUKESHA       PTCLDY    57  50  77 E7        30.15S
$$

INZ001>003-010>013-019-020-190000-
NORTHWEST INDIANA

CITY           SKY/WX    TMP DP  RH WIND       PRES   REMARKS
GARY*          PTCLDY    63  57  82 NE9       30.12S
MICHIGAN CITY* NOT AVBL
RENSSELAER*    NOT AVBL
VALPARAISO     CLEAR     65  53  65 N6        30.10S
$$

LMZ740>746-190000-
SOUTHERN LAKE MICHIGAN

STATION/POSITION TIME  SKY/WX   TEMP WIND        PRES    VSBY
                                AIR  DIR/SP/G
                 (UTC)          (F)  (DEG/KT/KT) (MB)    (MI)
HARRISON CRIB    2200            60  360/ 12/ 13   N/A
BURNHAM HARBOR   2200            62  360/  7/ 12   N/A
CALUMET HARBOR   2200            62  350/  9/ 12 1018.5F
BURNS HARBOR     NOT AVBL
MICHIGAN CITY    2200            63  360/ 12/ 14   N/A
$$

ABBREVIATIONS USED IN REMARKS
   TC - TEMPERATURE IN CELSIUS
  WCI - WIND CHILL INDEX
   HX - HEAT INDEX
  VSB - VISIBILITY
$$



USA.gov is the U.S. government's official web portal to all federal, state and local government web resources and services.